Temperature
14 15 15 16 19 20 21 22 21 22 22 22 22 23 24 25 25 24 19 19 19 18 17 17 17 17 17 16 16 16 16 16 16 16 16 16 16 16 16 16 16 15 15 15 15 15 15 15 15
13 14 15 17 19 20 21 21 21 22 22 20 21 22 23 23 20 19 18 18 18 18 17 17 17 17 17 16 16 16 16 16 16 16 16 16 16 16 16 16 16 16 15 15 15 15 15 15 15
13 14 16 18 18 20 21 21 22 21 20 20 21 21 22 21 19 18 18 18 17 17 17 16 17 17 16 16 16 16 16 16 16 16 16 16 16 16 16 16 16 16 16 16 16 15 16 15 15
13 14 15 17 18 20 21 21 21 21 20 20 21 22 20 17 17 17 18 17 17 16 16 16 16 16 16 16 16 16 16 16 16 16 16 16 15 16 16 16 16 16 16 16 15 15 15 15 15
13 15 16 17 18 20 20 20 20 21 21 21 21 22 20 17 17 17 17 16 16 16 16 16 16 16 16 16 16 16 16 16 16 16 16 16 15 16 16 16 16 16 16 16 15 15 15 15 15
13 15 16 17 18 19 20 19 19 21 21 20 21 21 19 17 17 17 16 16 16 16 16 16 16 16 16 16 16 16 16 16 16 16 16 16 16 16 16 16 16 16 16 15 15 15 15 15 15
13 15 16 18 18 19 19 18 19 20 21 20 20 21 18 16 16 16 16 16 16 16 16 16 16 16 16 16 16 16 16 16 16 16 16 16 16 16 16 16 16 16 16 15 15 15 15 15 15
12 15 16 18 18 19 19 18 18 20 20 19 19 21 19 16 16 16 16 16 16 15 15 16 16 15 15 16 16 16 16 16 16 16 16 16 16 16 16 16 16 16 16 16 15 15 15 15 15
12 13 15 17 18 19 18 18 18 18 19 18 18 18 17 16 16 16 15 15 15 15 15 15 15 15 15 15 16 16 16 16 16 16 16 16 15 15 16 16 16 16 16 16 16 15 15 15 15
12 13 15 17 18 18 18 18 18 18 19 18 18 17 16 16 16 15 15 15 15 15 15 15 15 15 15 15 15 15 15 16 15 15 16 15 15 15 15 16 16 16 16 16 16 15 15 15 14
12 14 16 16 15 16 17 17 18 18 19 19 19 17 16 16 16 16 16 16 15 15 15 15 15 15 15 15 15 15 15 15 15 15 15 15 15 15 15 15 15 15 15 15 15 15 15 14 14
12 14 14 14 14 15 16 17 17 18 19 18 18 17 16 16 16 16 16 15 15 15 15 15 15 15 15 15 15 15 15 15 15 15 15 15 15 15 15 15 15 15 15 15 15 14 14 14 14
12 13 13 13 13 14 15 16 17 17 17 17 17 16 16 16 16 16 16 16 16 15 15 15 15 15 15 15 15 15 15 15 15 15 15 15 15 15 15 15 15 15 15 15 15 14 14 14 14
12 12 13 13 13 14 15 16 16 17 16 16 16 16 16 16 16 16 16 16 16 16 15 15 15 15 15 15 15 15 15 15 15 15 15 15 15 15 15 15 15 15 15 14 14 14 14 14 13
11 12 12 13 13 14 14 15 16 16 15 16 16 16 16 16 16 16 16 16 16 16 16 15 15 15 15 15 15 15 15 15 15 15 15 15 15 15 15 15 15 14 14 14 14 14 14 14 14
11 11 11 13 13 13 14 15 16 15 15 16 16 16 16 16 16 16 16 16 16 16 16 16 15 15 15 15 15 15 15 15 15 15 15 15 15 15 15 15 15 14 14 14 14 13 13 13 13
9 10 11 12 13 13 14 15 16 15 15 16 16 16 16 16 16 16 16 16 16 16 16 16 15 15 15 15 15 15 14 14 14 14 15 15 14 15 14 14 14 14 14 14 13 13 13 13 13
9 10 11 12 12 13 13 14 15 14 15 16 16 16 16 16 16 16 16 16 16 16 16 16 16 15 15 15 15 15 14 14 14 14 14 14 14 14 14 14 14 14 14 14 13 13 13 13 13
10 10 11 11 12 12 13 14 15 15 15 15 16 16 16 16 16 16 16 16 16 16 16 16 16 16 15 15 15 15 15 15 14 14 14 14 14 14 14 14 14 14 13 13 13 13 13 13 12
8 9 10 10 11 12 13 13 14 15 15 15 16 16 16 15 15 15 16 16 16 16 16 16 16 16 15 15 15 15 15 15 14 14 14 14 14 14 14 14 14 13 13 13 13 13 13 12 12
8 9 10 10 10 11 12 12 14 15 14 14 14 15 15 15 15 15 15 15 16 16 16 16 16 16 16 15 15 15 14 14 14 14 14 14 14 14 14 14 13 13 13 13 13 13 13 12 12
8 9 10 10 10 11 11 12 14 15 15 15 15 15 15 15 15 15 15 15 16 16 16 16 16 16 16 15 15 15 14 14 14 15 15 14 14 14 14 14 13 13 13 13 13 13 13 12 12
8 9 9 10 10 10 11 12 14 14 14 15 16 15 15 14 14 14 15 15 15 15 15 16 16 16 16 15 15 15 15 14 14 14 14 14 14 14 14 13 13 13 13 13 13 13 12 12 12
8 8 9 9 9 9 11 11 13 14 15 15 16 15 14 14 14 14 14 15 15 15 15 15 15 15 15 15 15 15 15 14 14 14 14 14 14 14 13 13 13 13 13 13 13 12 12 12 11
7 8 8 8 8 10 11 11 13 14 14 14 15 14 13 13 13 13 14 14 14 15 15 15 15 15 15 15 15 14 14 14 14 14 14 14 13 13 13 13 13 13 13 12 12 12 12 11 11
7 8 9 9 10 10 9 11 14 13 12 11 12 12 11 12 12 12 13 13 14 14 14 14 14 14 14 14 14 14 14 14 13 13 13 13 13 13 13 12 12 12 12 12 12 11 11 11 11
7 7 8 9 9 10 11 11 13 12 12 12 11 11 11 11 11 11 12 13 13 13 13 14 13 13 13 13 13 13 13 13 13 13 13 12 12 12 12 12 12 12 11 11 11 11 11 10 10
7 8 8 8 9 10 11 11 13 13 13 12 12 11 11 10 10 10 11 12 12 12 12 12 12 12 12 13 12 12 12 12 12 12 12 12 11 11 11 11 11 11 11 10 10 10 10 9 9
7 7 7 8 9 10 11 12 12 12 12 12 12 11 10 9 9 9 10 10 11 11 11 11 11 11 11 11 11 11 11 11 11 11 11 11 10 10 10 10 10 10 10 10 9 9 9 9 8
7 8 8 8 8 9 11 12 12 11 11 10 10 9 9 8 8 8 9 9 10 10 10 10 10 11 11 11 11 10 10 10 10 10 10 10 9 9 9 9 9 9 9 9 8 8 8 8 8
Wind_Speed
4 3 2 3 6 8 15 10 6 7 7 4 2 4 4 4 3 2 4 15 18 21 23 24 23 22 21 20 19 18 17 17 16 15 14 14 13 13 13 14 14 14 15 16 16 16 16 16 16
4 3 3 4 9 14 16 12 10 8 4 3 3 4 4 2 2 4 7 15 19 21 22 23 23 22 21 20 19 18 17 16 15 15 14 13 14 13 13 14 14 14 15 16 16 16 16 15 15
5 3 5 6 12 18 15 11 11 6 3 4 4 3 2 1 2 4 8 16 19 20 21 22 23 22 21 20 19 18 17 16 15 14 13 13 13 13 14 14 14 14 15 15 15 15 15 15 14
6 5 5 11 19 19 11 7 8 8 5 3 4 4 3 3 2 4 12 17 19 19 20 22 22 21 21 19 18 17 16 15 14 13 13 13 13 13 14 14 14 14 14 14 14 14 14 13 13
5 7 11 16 22 17 12 5 6 8 6 4 4 4 4 3 2 8 15 17 18 18 18 22 22 21 20 19 18 17 16 15 14 13 13 13 13 13 14 14 13 13 13 13 13 13 13 12 12
8 8 14 21 24 17 13 9 6 7 6 4 3 4 3 3 5 11 15 16 17 17 17 21 21 21 20 18 17 16 16 15 14 13 12 12 13 13 13 13 13 12 12 12 11 11 11 11 11
10 14 20 24 22 19 15 11 10 8 6 4 2 3 4 4 7 12 14 15 15 16 16 18 20 20 19 18 17 16 15 14 13 12 11 13 14 13 12 12 11 11 11 11 10 10 10 10 10
8 9 21 23 22 20 15 11 8 9 6 2 1 3 5 6 10 11 12 13 14 14 15 16 17 18 18 17 16 16 16 14 13 12 12 13 14 13 12 11 10 10 10 9 9 9 9 9 8
7 11 20 23 21 18 13 12 9 5 5 3 1 2 5 11 12 12 11 11 13 14 14 14 15 16 16 15 16 16 15 14 13 12 13 13 11 11 10 9 10 9 9 8 8 8 8 8 7
11 16 23 17 14 13 13 13 11 8 9 6 4 4 8 12 12 13 13 14 15 16 15 13 14 14 14 13 14 13 12 12 11 11 12 10 9 8 8 11 9 8 8 8 7 8 8 6 5
12 17 17 10 9 9 11 11 11 12 12 10 9 8 10 11 12 13 13 14 15 15 15 14 13 14 13 11 11 10 10 10 10 10 10 9 8 8 8 8 9 8 8 7 7 7 5 4 3
10 13 12 9 7 8 10 10 12 14 12 7 7 9 11 12 12 13 13 13 13 14 15 14 13 13 13 12 10 10 9 9 8 9 10 9 7 7 7 7 7 7 6 6 6 5 5 4 4
13 11 10 8 6 6 8 11 11 13 9 5 6 9 11 11 11 11 12 13 13 14 15 15 14 13 13 11 9 9 9 9 9 9 10 9 8 7 7 6 6 7 6 6 5 6 5 5 5
10 10 10 8 7 6 8 9 10 11 8 9 10 11 11 12 12 11 12 13 14 14 15 14 15 14 13 11 10 9 10 9 9 9 10 10 9 8 7 7 7 6 6 6 6 6 5 5 5
8 9 10 10 10 7 8 13 15 11 8 11 12 12 11 11 11 12 12 13 14 14 14 14 14 13 13 12 11 10 10 10 9 9 11 11 10 9 8 7 6 7 7 7 6 6 6 5 5
8 10 12 11 11 9 11 18 15 9 11 13 13 13 12 12 12 11 11 12 12 13 13 13 11 13 13 12 11 10 10 10 9 10 10 12 12 11 9 7 7 8 8 7 6 6 6 6 6
8 11 14 11 11 10 13 14 10 8 11 14 14 14 13 12 11 10 10 11 11 12 13 13 13 13 13 12 10 10 9 9 9 9 10 11 12 12 10 8 8 9 8 7 6 6 6 6 7
10 11 13 14 11 13 16 14 8 6 10 13 14 14 13 13 13 10 8 8 9 11 12 13 13 13 12 10 8 6 7 7 8 9 9 11 12 12 11 9 10 10 7 7 7 8 7 7 7
6 10 11 9 8 12 16 16 12 9 10 12 13 13 14 14 11 8 7 7 8 9 11 12 13 12 11 8 8 7 8 7 7 7 9 11 11 11 11 8 9 9 8 9 9 8 8 8 6
6 9 10 6 6 9 12 16 14 13 13 13 13 14 14 12 11 9 7 7 8 9 10 11 12 12 11 9 8 6 6 6 7 7 8 10 11 11 10 10 8 9 8 10 10 9 6 6 6
8 9 10 7 4 6 8 13 17 16 15 14 14 13 13 13 13 11 9 8 7 7 9 9 10 10 11 10 7 4 4 3 5 7 7 9 11 11 11 11 10 9 9 9 10 10 10 8 8
7 8 8 8 7 6 10 9 15 17 18 18 18 16 15 13 12 11 9 8 8 7 6 8 8 9 9 10 9 10 8 8 8 6 7 7 9 9 10 10 10 9 8 9 9 9 9 9 8
3 4 7 7 6 5 8 8 9 11 18 21 20 19 17 15 14 12 10 9 7 6 5 6 7 8 8 9 10 10 9 8 6 6 7 7 7 8 9 9 9 8 8 9 9 9 9 8 9
4 5 5 4 4 7 12 11 9 10 15 16 17 17 16 14 13 12 9 7 6 5 5 6 7 7 7 9 9 10 10 9 8 8 7 6 5 5 7 7 7 7 7 8 8 8 9 9 9
6 7 5 6 7 7 8 10 9 6 8 11 12 12 12 11 11 11 10 9 8 7 7 7 7 7 7 8 8 8 9 9 10 9 8 7 5 5 6 6 6 6 6 7 6 7 7 8 8
8 6 4 5 7 4 7 10 6 3 4 7 8 8 8 10 10 10 10 8 8 8 7 7 8 7 6 6 6 6 6 5 5 6 5 5 5 4 4 5 5 5 6 5 5 5 6 6 7
6 5 3 1 1 3 6 6 7 5 6 6 6 7 7 8 8 8 8 7 7 7 7 8 8 7 6 5 5 5 4 4 4 4 4 3 3 3 4 4 4 4 4 5 5 4 5 4 4
3 4 3 4 4 4 6 7 5 6 6 4 4 5 5 6 6 7 6 7 7 7 6 7 6 6 5 5 4 3 3 3 3 3 3 3 2 2 3 3 3 3 3 3 3 3 3 3 2
6 5 4 3 3 3 4 3 0 2 2 3 3 3 3 4 5 6 6 7 7 7 7 7 6 6 5 4 4 4 4 3 3 2 2 2 2 2 2 2 2 2 1 2 2 2 2 3 2
6 7 7 4 4 3 3 1 2 2 2 2 2 2 2 3 4 5 6 7 8 8 7 6 6 5 5 4 4 4 4 3 3 2 2 1 1 1 1 1 1 1 1 1 2 2 2 2 2
Wind_Direction
252 251 229 211 208 218 222 208 202 186 189 189 197 215 213 197 193 113 107 156 150 152 154 154 152 150 147 143 139 137 134 132 130 127 124 121 117 111 107 104 101 100 100 98 97 95 95 95 93
223 205 199 208 219 214 214 207 199 188 163 169 194 211 209 190 44 91 142 155 154 153 155 158 152 151 148 145 142 140 137 134 132 130 127 122 118 114 110 106 102 101 100 97 96 95 95 94 94
195 208 198 202 219 219 209 199 197 176 166 182 176 194 206 102 87 130 151 157 156 154 157 153 152 152 148 147 145 142 139 136 134 132 129 125 120 116 112 109 106 105 103 100 99 98 95 94 93
184 181 199 216 217 219 217 186 187 178 173 180 183 160 130 47 32 134 151 160 157 156 156 153 154 151 149 148 146 145 143 139 136 134 133 129 124 118 115 112 110 109 107 104 103 101 97 95 94
197 191 202 215 219 215 215 203 184 186 174 166 183 163 127 47 66 142 154 160 158 156 155 155 155 151 150 149 149 147 145 142 140 138 138 134 128 122 119 119 117 115 113 109 107 104 100 97 96
187 199 206 211 213 212 209 209 203 190 172 162 173 160 97 71 124 144 152 159 158 156 155 156 154 151 151 151 150 148 146 145 145 144 143 140 133 127 126 125 124 123 120 116 111 108 105 101 98
201 203 212 212 212 209 206 205 214 200 186 167 174 158 115 109 131 144 151 157 157 158 158 159 161 157 153 152 151 149 146 147 148 147 144 142 136 133 132 131 130 128 124 120 116 113 110 107 104
214 210 218 216 214 212 203 201 215 216 205 173 222 174 135 134 140 142 147 156 160 163 164 164 166 165 163 160 153 150 149 148 148 145 140 138 139 137 137 140 133 130 127 124 121 118 115 112 111
202 212 215 212 214 212 200 203 206 218 200 186 156 50 110 137 144 145 149 160 167 171 171 170 168 168 167 165 157 155 152 151 151 149 146 151 157 153 154 143 137 133 131 131 130 126 122 122 122
199 215 219 217 221 215 203 207 198 194 202 197 172 113 133 149 157 160 165 170 175 177 177 175 174 170 169 163 163 165 163 163 169 163 164 171 165 158 149 139 144 139 137 136 134 134 145 170 156
202 220 219 211 214 219 206 209 206 209 215 214 199 166 153 164 171 174 177 179 182 181 180 181 178 175 172 167 169 169 168 167 172 170 172 172 166 161 163 160 158 161 164 165 153 172 184 194 186
204 217 211 200 197 210 209 210 214 218 222 216 201 172 169 178 183 185 185 186 185 185 186 184 182 180 179 174 174 175 174 174 175 177 178 177 176 180 180 181 176 179 185 183 192 203 196 205 209
210 204 202 201 188 202 206 210 218 222 223 211 187 180 186 192 193 194 193 190 189 190 191 189 188 187 183 179 177 183 183 185 182 180 186 188 187 190 188 192 191 196 196 196 204 212 210 220 226
202 203 201 205 203 209 213 217 219 222 216 203 196 198 202 202 200 198 198 197 196 195 195 193 193 193 190 186 185 189 190 188 188 188 194 195 196 197 196 200 201 206 209 211 214 219 222 230 238
196 195 199 208 209 207 211 224 221 219 215 213 210 210 212 214 208 209 206 205 203 200 197 196 196 197 196 195 191 192 192 193 194 195 199 200 202 202 203 208 208 212 215 216 222 224 233 240 244
189 199 204 204 204 205 208 225 217 216 218 220 217 217 215 217 216 216 212 210 209 203 200 198 195 198 198 197 194 194 196 196 198 199 200 205 207 207 207 212 216 217 216 218 221 227 232 237 243
192 201 203 196 201 201 211 230 222 215 220 222 218 219 219 217 218 218 215 212 210 206 203 199 198 199 198 197 197 198 197 200 202 201 203 206 210 209 211 217 220 216 218 221 223 231 236 243 247
190 197 199 200 193 205 214 225 223 219 222 223 219 218 220 219 218 215 212 212 210 208 207 204 201 202 197 194 194 196 200 203 205 204 206 207 210 211 213 218 222 218 219 222 222 228 233 245 254
204 200 199 201 193 206 220 227 229 228 227 225 221 219 219 220 216 209 204 201 198 201 205 205 203 201 193 189 191 196 204 203 204 208 211 208 210 209 212 217 221 216 220 225 227 229 234 237 241
207 202 195 187 196 211 226 234 234 234 233 232 228 224 221 217 214 209 201 195 193 195 201 203 203 198 194 195 195 200 201 208 209 207 213 213 213 210 211 217 220 217 222 227 228 223 230 234 220
205 206 194 182 171 214 225 237 232 231 233 234 234 233 229 223 219 212 205 199 193 193 198 200 199 194 194 194 189 181 185 191 201 209 213 215 214 214 215 220 224 224 224 228 226 220 224 233 225
203 206 198 187 191 203 208 232 226 222 225 228 228 226 228 224 222 217 212 207 200 196 193 200 196 193 193 192 194 198 205 214 214 210 211 213 214 217 220 223 225 227 226 232 231 226 225 232 237
194 184 188 192 205 223 212 231 232 210 225 226 226 225 226 225 223 219 214 211 206 194 190 194 193 194 191 194 199 205 215 221 214 208 212 214 214 217 220 224 225 229 230 233 234 231 229 229 236
157 144 144 171 204 229 214 219 239 214 223 223 222 224 225 225 224 220 215 207 205 191 185 189 187 191 192 196 201 206 212 213 210 211 214 215 214 215 220 224 228 232 233 234 235 233 231 232 236
194 167 163 184 205 226 191 214 242 233 230 231 229 226 224 221 219 214 209 204 200 191 185 186 185 188 190 195 202 210 216 218 218 218 219 218 217 218 222 222 227 232 236 238 238 236 236 233 233
196 210 216 202 198 192 186 222 237 246 251 248 246 242 235 225 218 214 207 203 196 189 183 180 183 183 183 189 195 201 207 214 218 220 220 219 219 219 221 224 229 235 237 237 234 235 236 236 235
180 208 262 301 184 202 208 238 261 239 236 235 234 231 228 222 215 210 199 192 187 182 180 176 174 171 172 175 178 181 187 194 198 201 208 213 213 213 216 219 227 233 238 239 235 233 235 232 235
213 175 189 204 203 213 214 232 222 201 210 220 225 225 223 215 207 198 186 176 170 168 166 163 164 161 158 158 156 153 154 158 167 177 188 195 195 203 213 218 222 225 231 232 225 225 226 215 215
180 184 209 214 253 241 212 206 162 240 243 241 237 233 220 201 191 182 171 164 159 157 158 154 155 152 150 149 146 145 142 143 148 153 162 171 175 190 200 200 201 204 208 211 207 204 201 195 183
218 211 203 213 215 240 249 231 58 286 289 262 244 228 197 182 174 168 162 160 160 160 159 158 158 155 152 150 149 144 139 139 140 137 129 132 142 138 143 149 156 151 154 164 178 168 163 169 164
Height
1523 1526 1529 1531 1531 1526 1518 1516 1517 1518 1519 1521 1521 1521 1519 1518 1520 1526 1526 1527 1530 1533 1537 1540 1544 1547 1550 1552 1555 1556 1558 1558 1559 1560 1560 1561 1561 1561 1562 1562 1562 1563 1563 1564 1564 1565 1565 1566 1566
1522 1525 1529 1530 1525 1521 1515 1513 1517 1516 1518 1521 1521 1521 1520 1520 1523 1523 1524 1527 1530 1534 1538 1541 1544 1548 1551 1553 1556 1557 1559 1560 1561 1561 1562 1563 1563 1563 1564 1564 1564 1565 1565 1566 1567 1567 1568 1568 1569
1521 1524 1527 1525 1520 1513 1510 1512 1514 1517 1519 1520 1520 1521 1521 1522 1523 1523 1524 1526 1531 1535 1539 1542 1545 1549 1552 1554 1556 1558 1560 1561 1562 1563 1563 1564 1565 1565 1566 1566 1566 1567 1567 1568 1569 1569 1570 1570 1571
1520 1524 1525 1521 1515 1510 1508 1511 1514 1516 1519 1519 1519 1520 1522 1523 1523 1523 1523 1527 1532 1536 1540 1543 1546 1550 1553 1555 1557 1559 1561 1562 1563 1564 1565 1566 1566 1567 1567 1568 1569 1569 1570 1570 1571 1572 1572 1573 1573
1518 1519 1518 1515 1510 1508 1511 1514 1515 1515 1516 1518 1519 1518 1521 1522 1521 1522 1524 1528 1533 1537 1541 1544 1547 1551 1554 1556 1558 1560 1561 1563 1564 1565 1566 1567 1568 1568 1569 1570 1570 1571 1572 1572 1573 1574 1574 1575 1576
1515 1514 1512 1509 1506 1507 1511 1515 1516 1515 1515 1517 1518 1518 1521 1521 1521 1523 1526 1530 1534 1538 1541 1545 1548 1552 1554 1557 1559 1560 1562 1563 1565 1566 1567 1568 1569 1570 1571 1571 1572 1573 1574 1574 1575 1576 1576 1577 1578
1511 1509 1503 1501 1501 1505 1509 1514 1515 1514 1515 1517 1518 1518 1521 1522 1523 1525 1527 1531 1535 1539 1542 1545 1549 1552 1555 1557 1559 1561 1563 1564 1565 1567 1568 1569 1570 1571 1572 1573 1574 1574 1575 1576 1577 1577 1578 1579 1579
1508 1508 1502 1498 1499 1502 1508 1513 1514 1515 1515 1518 1519 1518 1521 1523 1523 1526 1528 1532 1536 1539 1543 1546 1549 1552 1555 1557 1559 1561 1563 1564 1566 1567 1568 1569 1571 1572 1573 1574 1575 1576 1576 1577 1578 1579 1579 1580 1580
1507 1508 1499 1496 1498 1500 1507 1511 1514 1515 1516 1518 1519 1520 1521 1522 1524 1527 1529 1532 1536 1539 1543 1546 1549 1552 1555 1557 1559 1561 1563 1564 1566 1567 1568 1570 1571 1573 1574 1575 1576 1576 1577 1578 1579 1579 1580 1581 1581
1505 1501 1495 1497 1499 1502 1506 1509 1512 1514 1515 1517 1519 1520 1521 1522 1525 1527 1529 1532 1535 1538 1542 1545 1548 1551 1554 1556 1559 1561 1563 1564 1566 1567 1569 1570 1572 1573 1574 1574 1576 1577 1577 1578 1579 1580 1581 1581 1582
1501 1497 1497 1501 1504 1505 1506 1509 1511 1512 1513 1515 1517 1519 1521 1523 1525 1527 1529 1532 1535 1538 1541 1544 1547 1550 1553 1555 1558 1560 1562 1564 1565 1567 1568 1570 1571 1572 1573 1575 1575 1576 1577 1578 1579 1580 1581 1581 1582
1499 1498 1500 1502 1505 1507 1507 1508 1509 1510 1512 1514 1516 1518 1520 1522 1525 1527 1529 1532 1534 1537 1540 1543 1546 1549 1552 1554 1557 1559 1561 1563 1564 1566 1567 1569 1570 1571 1573 1574 1575 1576 1577 1578 1579 1580 1580 1581 1581
1498 1499 1502 1503 1505 1506 1507 1508 1508 1509 1512 1513 1515 1517 1519 1521 1524 1526 1529 1531 1533 1536 1538 1541 1544 1547 1550 1553 1555 1558 1560 1562 1563 1565 1566 1568 1569 1570 1572 1573 1574 1575 1576 1577 1578 1579 1579 1580 1580
1497 1499 1501 1503 1504 1506 1506 1507 1508 1508 1510 1512 1514 1516 1518 1520 1523 1525 1527 1529 1531 1534 1537 1540 1542 1546 1549 1551 1554 1556 1558 1560 1562 1563 1565 1566 1568 1569 1570 1571 1572 1574 1575 1576 1576 1577 1578 1578 1578
1498 1500 1501 1502 1503 1505 1507 1506 1504 1507 1509 1510 1512 1514 1516 1519 1521 1523 1525 1527 1530 1532 1535 1538 1540 1543 1546 1549 1552 1554 1556 1558 1560 1561 1563 1564 1566 1567 1568 1569 1571 1572 1573 1573 1574 1575 1575 1576 1576
1498 1499 1500 1499 1501 1503 1507 1501 1500 1505 1507 1508 1510 1512 1514 1516 1518 1521 1523 1525 1528 1530 1533 1536 1538 1541 1544 1547 1549 1552 1554 1556 1558 1559 1561 1562 1563 1565 1566 1567 1568 1570 1570 1571 1572 1573 1573 1573 1574
1498 1497 1496 1497 1499 1500 1502 1498 1499 1502 1505 1505 1507 1509 1511 1513 1516 1518 1520 1522 1525 1528 1530 1533 1536 1538 1541 1544 1547 1550 1552 1554 1556 1557 1558 1560 1561 1562 1563 1564 1566 1567 1568 1568 1569 1570 1570 1571 1571
1493 1493 1493 1494 1496 1498 1498 1497 1499 1501 1502 1502 1504 1506 1508 1510 1513 1515 1517 1519 1522 1525 1528 1531 1533 1536 1539 1542 1544 1547 1549 1551 1553 1554 1556 1557 1558 1559 1560 1562 1563 1564 1564 1565 1566 1566 1567 1567 1568
1492 1491 1492 1494 1496 1497 1495 1495 1497 1499 1500 1500 1501 1503 1505 1507 1510 1512 1514 1516 1518 1521 1525 1527 1530 1533 1536 1538 1541 1543 1545 1547 1549 1551 1553 1554 1555 1556 1557 1558 1559 1560 1561 1562 1562 1563 1563 1563 1564
1495 1494 1493 1496 1497 1497 1495 1494 1494 1496 1496 1497 1498 1499 1502 1504 1506 1508 1510 1513 1515 1518 1521 1524 1527 1530 1533 1535 1538 1540 1542 1544 1546 1548 1549 1551 1552 1553 1553 1554 1556 1556 1557 1558 1558 1559 1559 1559 1560
1496 1495 1493 1495 1497 1496 1497 1494 1490 1491 1493 1494 1495 1496 1498 1500 1503 1505 1507 1509 1512 1515 1518 1521 1524 1526 1529 1532 1535 1536 1538 1540 1542 1543 1545 1546 1548 1549 1549 1550 1551 1552 1553 1553 1554 1554 1554 1555 1555
1494 1494 1494 1495 1497 1495 1495 1490 1481 1482 1486 1488 1490 1492 1494 1496 1499 1501 1503 1506 1509 1512 1515 1518 1520 1523 1526 1528 1531 1532 1534 1536 1538 1539 1541 1542 1543 1544 1545 1546 1547 1547 1548 1548 1549 1549 1549 1549 1549
1494 1495 1495 1496 1498 1498 1494 1491 1477 1479 1480 1479 1482 1486 1489 1492 1495 1497 1500 1503 1505 1508 1511 1514 1517 1519 1522 1524 1526 1528 1530 1533 1534 1535 1536 1538 1538 1539 1539 1540 1541 1542 1542 1542 1543 1543 1543 1543 1544
1497 1497 1498 1499 1500 1499 1488 1488 1475 1472 1472 1473 1477 1481 1484 1487 1490 1493 1496 1499 1501 1504 1507 1510 1513 1515 1518 1520 1522 1524 1526 1528 1529 1531 1532 1532 1533 1533 1534 1535 1535 1536 1536 1536 1537 1537 1537 1537 1537
1498 1497 1499 1500 1498 1488 1483 1484 1473 1467 1470 1472 1474 1477 1480 1483 1485 1488 1490 1493 1496 1499 1503 1506 1508 1511 1514 1516 1518 1520 1522 1523 1524 1525 1527 1527 1527 1528 1528 1529 1529 1530 1530 1530 1530 1530 1530 1530 1530
1496 1495 1490 1486 1484 1481 1487 1479 1467 1469 1472 1473 1474 1475 1477 1478 1481 1483 1485 1488 1492 1495 1498 1501 1504 1507 1509 1511 1513 1515 1517 1518 1519 1520 1521 1521 1522 1522 1523 1523 1523 1524 1524 1524 1524 1524 1524 1524 1524
1494 1493 1492 1489 1486 1483 1477 1473 1468 1468 1469 1470 1471 1472 1473 1475 1477 1479 1481 1484 1487 1490 1493 1496 1499 1502 1504 1507 1509 1510 1512 1513 1514 1515 1516 1516 1517 1517 1517 1517 1517 1518 1518 1518 1518 1518 1518 1517 1517
1494 1492 1493 1490 1484 1477 1473 1469 1462 1463 1465 1467 1469 1470 1471 1473 1474 1476 1478 1480 1483 1486 1489 1492 1495 1498 1500 1502 1504 1505 1507 1508 1509 1510 1510 1511 1511 1512 1512 1512 1512 1512 1512 1512 1512 1512 1511 1511 1511
1493 1493 1490 1486 1482 1475 1470 1463 1462 1463 1465 1466 1467 1469 1470 1471 1472 1474 1475 1478 1480 1484 1487 1490 1492 1495 1497 1498 1500 1501 1503 1504 1505 1505 1506 1506 1506 1507 1507 1507 1507 1507 1507 1507 1507 1506 1506 1506 1506
1488 1486 1486 1485 1483 1479 1470 1467 1464 1466 1467 1467 1468 1469 1469 1470 1471 1472 1474 1476 1479 1481 1484 1487 1489 1492 1493 1495 1497 1498 1499 1500 1500 1501 1501 1502 1502 1502 1502 1502 1502 1502 1502 1502 1502 1502 1502 1502 1502